[[{"header":{"parameterUnit":"m.s-1","parameterCategory":2,"la1":30.2992,"la2":30.254,"lo1":-89.0895,"lo2":-89.0443,"dy":0.0025,"dx":0.0025,"nx":19,"ny":19,"refTime":"2026-05-06T03:00:00:Z","depth":"0","parameterNumber":2,"parameterNumberName":"U-component_of_CURRENTS"},"data":[0,0,0,-0.0364,-0.0364,-0.0332,-0.0332,-0.0269,-0.0269,0,0,0,0,0,0,0,0,0,0,0,-0.0369,-0.037,-0.0364,-0.0364,-0.0332,-0.0332,-0.0269,-0.0269,0,0,0,0,0,0,0,0,0,0,0,-0.0369,-0.037,-0.037,-0.0364,-0.0332,-0.0332,-0.0269,-0.0294,0,0,0,0,0,0,0,0,0,0,-0.0326,-0.0338,-0.037,-0.037,-0.0364,-0.0332,-0.0332,-0.0296,-0.0293,-0.0282,0,-0.0286,0,-0.0286,-0.0266,-0.0265,0,0,0,-0.0346,-0.0341,-0.0339,-0.037,-0.0364,-0.0332,-0.0341,-0.0294,-0.0291,-0.0279,-0.0285,-0.0283,-0.0285,-0.0265,-0.0265,-0.0292,-0.0293,0,0,-0.0348,-0.0353,-0.0342,-0.0338,-0.0366,-0.0343,-0.0341,-0.0292,-0.0289,-0.0285,-0.0282,-0.0284,-0.0265,-0.0265,-0.0291,-0.0292,0,0,0,-0.0365,-0.0354,-0.0354,-0.034,-0.0342,-0.0342,-0.034,-0.029,-0.0293,-0.0281,-0.0283,-0.0265,-0.0264,-0.0291,-0.0292,-0.0286,0,0,0,-0.0365,-0.0366,-0.0355,-0.0356,-0.0343,-0.0319,-0.0339,-0.0296,-0.0291,-0.0283,-0.0265,-0.0264,-0.029,-0.0291,-0.0285,-0.0096,0,0,0,-0.0369,-0.0366,-0.0367,-0.0357,-0.0353,-0.032,-0.0318,-0.0294,-0.0293,-0.0265,-0.0263,-0.029,-0.0291,-0.0284,-0.0101,0.0263,0,0,0,-0.0367,-0.0368,-0.0367,-0.0381,-0.0353,-0.0365,-0.0318,-0.0324,-0.031,-0.0264,-0.029,-0.0292,-0.0283,-0.0103,0.0254,0.0572,0.0637,0,0,-0.0367,-0.0368,-0.0381,-0.038,-0.04,-0.0367,-0.0381,-0.0348,-0.0328,-0.0299,-0.03,-0.0285,-0.0101,0.0261,0.0482,0.0552,0,0,0,-0.0381,-0.0388,-0.0397,-0.0411,-0.0418,-0.0388,-0.0388,-0.0378,-0.0352,-0.0329,-0.0318,-0.0198,0.0031,0.0199,0.0251,0.0404,-0.0299,-0.0299,-0.0298,-0.0326,-0.0368,-0.0393,-0.0434,-0.0435,-0.0422,-0.0369,-0.0351,-0.0389,-0.0394,-0.0228,0.0024,0.0183,0.0232,0.0374,-0.0365,-0.0365,-0.0365,-0.0365,-0.0334,-0.036,-0.0395,-0.0438,-0.0422,-0.0417,-0.0337,-0.0327,-0.008,-0.0256,-0.0037,0.0151,0.0293,0.0423,-0.0365,-0.0365,-0.0365,-0.0365,-0.0365,-0.032,-0.0341,-0.0384,-0.0407,-0.0349,-0.0312,-0.0018,0.0027,0.007,0.0236,0.0657,0.0659,0.0839,0.0409,0.0411,0.0414,0.0416,0.0417,0.0419,-0.0284,-0.0333,-0.0281,-0.0319,-0.0202,0.0011,0.0279,0.0524,0.0855,0.087,0.0872,0.0956,0.0269,0.0313,0.0454,0.0448,0.0443,0.044,0.0438,-0.0209,-0.023,-0.0101,0.0004,0.0285,0.0608,0.0799,0.1343,0.1613,0.1847,0.1776,0.1238,0.1375,0.133,0.1402,0.1821,0.1821,0.1821,0.1821,-0.0085,-0.0127,0.0217,0.0511,0.0807,0.0976,0.1534,0.1867,0.2259,0.2456,0.242,0.2177,0.2114,0.2275,0.221,0.229,0.2925,0.2926,0.2927,0.0083,0.0157,0.0529,0.0747,0.1098,0.1375,0.1791,0.2135,0.2707,0.297,0.2582,0.2535,0.2145,0.2036,0.2235,0.2131,0.2241,0,0]},{"header":{"parameterUnit":"m.s-1","parameterCategory":2,"la1":30.2992,"la2":30.254,"lo1":-89.0895,"lo2":-89.0443,"dy":0.0025,"dx":0.0025,"nx":19,"ny":19,"refTime":"2026-05-06T03:00:00:Z","depth":"0","parameterNumber":3,"parameterNumberName":"V-component_of_CURRENTS"},"data":[0,0,0,-0.1227,-0.1226,-0.1165,-0.1164,-0.1012,-0.1011,0,0,0,0,0,0,0,0,0,0,0,-0.1252,-0.1252,-0.1227,-0.1226,-0.1165,-0.1164,-0.1013,-0.1011,0,0,0,0,0,0,0,0,0,0,0,-0.1252,-0.1252,-0.1252,-0.1226,-0.1165,-0.1164,-0.1013,-0.1073,0,0,0,0,0,0,0,0,0,0,-0.114,-0.1175,-0.1252,-0.1252,-0.1226,-0.1165,-0.1164,-0.1076,-0.1069,-0.1025,0,-0.1033,0,-0.1023,-0.1001,-0.1,0,0,0,-0.1207,-0.1181,-0.1173,-0.1252,-0.1225,-0.1165,-0.1187,-0.1073,-0.1064,-0.1015,-0.1031,-0.1026,-0.1021,-0.1,-0.0999,-0.0982,-0.0983,0,0,-0.1211,-0.1224,-0.1179,-0.1169,-0.123,-0.1189,-0.1186,-0.1068,-0.1062,-0.1031,-0.1022,-0.1018,-0.0999,-0.0998,-0.0981,-0.0982,0,0,0,-0.1233,-0.1227,-0.1222,-0.1174,-0.1172,-0.1188,-0.1184,-0.1067,-0.1069,-0.1021,-0.1016,-0.0998,-0.0996,-0.098,-0.0982,-0.0929,0,0,0,-0.1234,-0.1241,-0.1224,-0.1229,-0.1175,-0.1127,-0.1185,-0.1077,-0.1063,-0.1017,-0.0998,-0.0995,-0.0979,-0.0981,-0.0929,-0.0695,0,0,0,-0.1251,-0.1242,-0.1244,-0.1231,-0.1213,-0.113,-0.1123,-0.1074,-0.1061,-0.1,-0.0994,-0.0978,-0.0981,-0.0928,-0.0702,-0.0389,0,0,0,-0.1253,-0.1299,-0.1245,-0.1288,-0.1214,-0.1227,-0.1124,-0.1113,-0.1076,-0.0997,-0.0979,-0.0982,-0.0928,-0.0706,-0.0397,-0.0111,-0.0049,0,0,-0.1322,-0.1307,-0.1335,-0.1287,-0.131,-0.1233,-0.1228,-0.1132,-0.1091,-0.1006,-0.1006,-0.0929,-0.0702,-0.039,-0.0243,-0.0174,0,0,0,-0.1364,-0.1379,-0.1383,-0.1372,-0.1355,-0.1226,-0.1214,-0.1168,-0.1074,-0.1082,-0.099,-0.0845,-0.0649,-0.0501,-0.045,-0.0451,-0.0992,-0.0992,-0.0991,-0.1473,-0.1445,-0.1427,-0.138,-0.1351,-0.1258,-0.1131,-0.1053,-0.1125,-0.1096,-0.0859,-0.0636,-0.0499,-0.0451,-0.0467,-0.1033,-0.1033,-0.1033,-0.1033,-0.1499,-0.1416,-0.1359,-0.1309,-0.1176,-0.1115,-0.0959,-0.0945,-0.0691,-0.0872,-0.069,-0.0525,-0.0388,-0.0426,-0.1031,-0.1031,-0.1032,-0.1032,-0.1032,-0.1485,-0.1399,-0.1367,-0.1171,-0.0961,-0.0848,-0.0453,-0.0436,-0.0456,-0.0305,-0.0008,-0.0007,0.004,-0.0213,-0.021,-0.0208,-0.0206,-0.0204,-0.0203,-0.1381,-0.1336,-0.112,-0.0947,-0.0713,-0.037,-0.0075,0.0137,0.0326,0.0259,0.0259,0.012,-0.0377,-0.0318,-0.0168,-0.0174,-0.0178,-0.0182,-0.0184,-0.1149,-0.1118,-0.0805,-0.0569,-0.0055,0.0367,0.054,0.0961,0.113,0.1276,0.0905,0.0575,0.0685,0.064,0.0725,0.114,0.114,0.114,0.114,-0.0906,-0.0903,-0.0353,0.0077,0.0544,0.0783,0.1324,0.1518,0.157,0.156,0.1438,0.1163,0.111,0.1224,0.1166,0.1251,0.179,0.179,0.179,-0.0567,-0.0486,0.0016,0.0339,0.0862,0.1217,0.1617,0.1805,0.1852,0.1799,0.139,0.1363,0.0913,0.083,0.0946,0.0865,0.0979,0,0]}],[{"header":{"parameterUnit":"m.s-1","parameterCategory":2,"la1":30.2992,"la2":30.254,"lo1":-89.0895,"lo2":-89.0443,"dy":0.0025,"dx":0.0025,"nx":19,"ny":19,"refTime":"2026-05-06T03:00:00:Z","depth":"2","parameterNumber":2,"parameterNumberName":"U-component_of_CURRENTS"},"data":[0,0,0,-0.057,-0.0571,-0.0594,-0.0594,-0.0628,-0.0628,0,0,0,0,0,0,0,0,0,0,0,-0.0559,-0.0559,-0.057,-0.0571,-0.0594,-0.0594,-0.0628,-0.0628,0,0,0,0,0,0,0,0,0,0,0,-0.0559,-0.0559,-0.0559,-0.0571,-0.0594,-0.0594,-0.0628,-0.0609,0,0,0,0,0,0,0,0,0,0,-0.0586,-0.0574,-0.0559,-0.0559,-0.0571,-0.0594,-0.0594,-0.0608,-0.061,-0.0618,0,-0.062,0,-0.0626,-0.063,-0.0631,0,0,0,-0.0571,-0.0572,-0.058,-0.056,-0.0571,-0.0594,-0.0584,-0.0609,-0.0612,-0.0621,-0.062,-0.0621,-0.0626,-0.0631,-0.0631,-0.0662,-0.0662,0,0,-0.057,-0.0563,-0.0579,-0.0582,-0.0575,-0.0583,-0.0584,-0.0611,-0.0611,-0.062,-0.0622,-0.0627,-0.0631,-0.0631,-0.0662,-0.0662,0,0,0,-0.0566,-0.0562,-0.0569,-0.058,-0.0585,-0.0584,-0.0585,-0.061,-0.0613,-0.0623,-0.0627,-0.0631,-0.0631,-0.0662,-0.0662,-0.076,0,0,0,-0.0565,-0.056,-0.0569,-0.0565,-0.0584,-0.0597,-0.0584,-0.0611,-0.0614,-0.0627,-0.0631,-0.0632,-0.0662,-0.0662,-0.0757,-0.0712,0,0,0,-0.0559,-0.0559,-0.0561,-0.0564,-0.0575,-0.0597,-0.0601,-0.0612,-0.0617,-0.0631,-0.0632,-0.0662,-0.0662,-0.0754,-0.071,-0.0496,0,0,0,-0.0551,-0.0557,-0.0561,-0.057,-0.0574,-0.0598,-0.0601,-0.0629,-0.0644,-0.0631,-0.0662,-0.0662,-0.0754,-0.0709,-0.0499,-0.033,-0.0304,0,0,-0.0556,-0.0557,-0.0564,-0.0568,-0.0619,-0.0595,-0.0645,-0.0672,-0.0646,-0.0653,-0.0654,-0.0758,-0.071,-0.0497,-0.0342,-0.0315,0,0,0,-0.0564,-0.0594,-0.0597,-0.0634,-0.0633,-0.0672,-0.0688,-0.0687,-0.0715,-0.0655,-0.0734,-0.0698,-0.056,-0.0465,-0.0445,-0.0663,-0.0663,-0.0663,-0.0663,-0.0585,-0.0616,-0.0679,-0.0731,-0.0733,-0.0743,-0.0749,-0.0751,-0.0749,-0.0772,-0.0766,-0.0645,-0.0556,-0.0535,-0.0795,-0.0795,-0.0796,-0.0796,-0.0796,-0.0701,-0.0763,-0.08,-0.0881,-0.0883,-0.0909,-0.0856,-0.0848,-0.0745,-0.0814,-0.0676,-0.0561,-0.0517,-0.0803,-0.0802,-0.0801,-0.08,-0.08,-0.0799,-0.0796,-0.0826,-0.09,-0.0972,-0.099,-0.0948,-0.0798,-0.0783,-0.0754,-0.0692,-0.0389,-0.0386,-0.0587,-0.0566,-0.0565,-0.0564,-0.0563,-0.0562,-0.0562,-0.0848,-0.0925,-0.093,-0.0999,-0.0945,-0.0842,-0.0684,-0.0542,-0.0369,-0.0379,-0.0375,-0.0561,-0.0569,-0.0565,-0.0545,-0.0548,-0.055,-0.0552,-0.0553,-0.0908,-0.087,-0.0864,-0.082,-0.0688,-0.0512,-0.0393,-0.0078,0.0085,0.0202,-0.0149,-0.0164,-0.0048,-0.0064,-0.0045,0.0111,0.0111,0.0111,0.0111,-0.0833,-0.0856,-0.071,-0.0574,-0.0411,-0.0322,0.0038,0.0212,0.0276,0.0223,0.0217,0.0088,0.0061,0.0176,0.0154,0.0174,0.0388,0.0388,0.0388,-0.0758,-0.0729,-0.056,-0.0468,-0.0278,-0.0115,0.0155,0.0368,0.0438,0.0386,0.0132,0.0156,-0.0057,-0.0091,0.0064,0.0036,0.0062,0,0]},{"header":{"parameterUnit":"m.s-1","parameterCategory":2,"la1":30.2992,"la2":30.254,"lo1":-89.0895,"lo2":-89.0443,"dy":0.0025,"dx":0.0025,"nx":19,"ny":19,"refTime":"2026-05-06T03:00:00:Z","depth":"2","parameterNumber":3,"parameterNumberName":"V-component_of_CURRENTS"},"data":[0,0,0,-0.0201,-0.0201,-0.0194,-0.0194,-0.0166,-0.0165,0,0,0,0,0,0,0,0,0,0,0,-0.0206,-0.0206,-0.0201,-0.0201,-0.0194,-0.0194,-0.0166,-0.0165,0,0,0,0,0,0,0,0,0,0,0,-0.0206,-0.0206,-0.0207,-0.0201,-0.0194,-0.0194,-0.0166,-0.0173,0,0,0,0,0,0,0,0,0,0,-0.0181,-0.0198,-0.0206,-0.0207,-0.0201,-0.0194,-0.0194,-0.0173,-0.0172,-0.0166,0,-0.0177,0,-0.0174,-0.0164,-0.0164,0,0,0,-0.019,-0.0199,-0.0194,-0.0207,-0.0201,-0.0194,-0.0194,-0.0173,-0.0172,-0.0165,-0.0176,-0.0175,-0.0173,-0.0164,-0.0164,-0.0164,-0.0165,0,0,-0.019,-0.0204,-0.0194,-0.0193,-0.0214,-0.0194,-0.0194,-0.0172,-0.0179,-0.0176,-0.0174,-0.0173,-0.0164,-0.0164,-0.0164,-0.0164,0,0,0,-0.0199,-0.0205,-0.02,-0.0194,-0.0197,-0.0195,-0.0194,-0.018,-0.0178,-0.0174,-0.0172,-0.0164,-0.0163,-0.0164,-0.0164,-0.0241,0,0,0,-0.0198,-0.021,-0.0201,-0.0208,-0.0198,-0.0193,-0.0202,-0.018,-0.0177,-0.0173,-0.0164,-0.0163,-0.0164,-0.0164,-0.0239,-0.0218,0,0,0,-0.0204,-0.021,-0.0213,-0.0209,-0.021,-0.0193,-0.019,-0.0179,-0.0176,-0.0164,-0.0163,-0.0164,-0.0164,-0.0236,-0.0215,-0.0165,0,0,0,-0.0211,-0.0239,-0.0214,-0.0242,-0.0211,-0.022,-0.019,-0.0203,-0.02,-0.0164,-0.0164,-0.0164,-0.0236,-0.0214,-0.0165,-0.0061,-0.0054,0,0,-0.025,-0.0244,-0.0258,-0.0236,-0.0252,-0.0219,-0.0236,-0.0224,-0.0198,-0.0167,-0.0167,-0.0239,-0.0215,-0.0165,-0.0083,-0.0075,0,0,0,-0.0273,-0.0286,-0.0285,-0.029,-0.0279,-0.0266,-0.0255,-0.0245,-0.0239,-0.0199,-0.0225,-0.0206,-0.0173,-0.0109,-0.0103,-0.0166,-0.0166,-0.0166,-0.0166,-0.0325,-0.0318,-0.0339,-0.0329,-0.0328,-0.0308,-0.0297,-0.0277,-0.027,-0.0283,-0.0262,-0.0258,-0.0196,-0.0189,-0.028,-0.028,-0.0281,-0.0281,-0.0281,-0.0377,-0.0393,-0.0372,-0.0395,-0.0368,-0.0375,-0.0335,-0.0334,-0.0294,-0.0305,-0.027,-0.0184,-0.0186,-0.0287,-0.0286,-0.0285,-0.0284,-0.0284,-0.0284,-0.0412,-0.0422,-0.0433,-0.0439,-0.0426,-0.0394,-0.0327,-0.0328,-0.0321,-0.0311,-0.0181,-0.0178,-0.026,-0.0292,-0.0292,-0.0291,-0.0291,-0.0291,-0.0291,-0.0452,-0.0462,-0.0465,-0.0468,-0.0438,-0.0386,-0.0312,-0.0257,-0.0202,-0.0199,-0.0198,-0.0259,-0.0259,-0.0256,-0.0287,-0.0287,-0.0288,-0.0288,-0.0289,-0.0519,-0.0505,-0.0491,-0.0467,-0.038,-0.0266,-0.0207,-0.0053,-0.0017,0.0034,-0.0116,-0.0122,-0.0058,-0.0062,-0.0052,-0.0027,-0.0027,-0.0027,-0.0027,-0.0545,-0.0545,-0.0479,-0.0402,-0.0304,-0.0198,0.0,0.0023,0.0016,-0.0065,-0.0065,-0.0094,-0.0101,-0.0043,-0.0046,-0.0037,-0.0009,-0.001,-0.001,-0.0575,-0.0537,-0.0474,-0.0385,-0.0257,-0.01,0.0076,0.0101,0.0007,-0.0021,-0.0185,-0.0002,-0.0042,-0.0055,0.0039,0.003,0.0047,0,0]}],[{"header":{"parameterUnit":"m.s-1","parameterCategory":2,"la1":30.2992,"la2":30.254,"lo1":-89.0895,"lo2":-89.0443,"dy":0.0025,"dx":0.0025,"nx":19,"ny":19,"refTime":"2026-05-06T03:00:00:Z","depth":"4","parameterNumber":2,"parameterNumberName":"U-component_of_CURRENTS"},"data":[0,0,0,-0.0473,-0.0473,-0.0491,-0.0492,-0.0494,-0.0494,0,0,0,0,0,0,0,0,0,0,0,-0.0467,-0.0467,-0.0473,-0.0473,-0.0491,-0.0492,-0.0494,-0.0494,0,0,0,0,0,0,0,0,0,0,0,-0.0467,-0.0467,-0.0468,-0.0473,-0.0491,-0.0492,-0.0494,-0.0486,0,0,0,0,0,0,0,0,0,0,-0.0471,-0.047,-0.0467,-0.0468,-0.0473,-0.0491,-0.0492,-0.0486,-0.0486,-0.0479,0,-0.0482,0,-0.0486,-0.0493,-0.0493,0,0,0,-0.0476,-0.0469,-0.0472,-0.0468,-0.0473,-0.0491,-0.0484,-0.0486,-0.0487,-0.048,-0.0482,-0.0482,-0.0486,-0.0493,-0.0493,-0.0447,-0.0447,0,0,-0.0475,-0.0473,-0.0471,-0.0472,-0.0477,-0.0483,-0.0484,-0.0487,-0.0488,-0.0482,-0.0482,-0.0486,-0.0493,-0.0493,-0.0448,-0.0447,0,0,0,-0.047,-0.0472,-0.0475,-0.0472,-0.0476,-0.0484,-0.0485,-0.0488,-0.0489,-0.0482,-0.0486,-0.0493,-0.0493,-0.0448,-0.0447,-0.041,0,0,0,-0.047,-0.0469,-0.0475,-0.0474,-0.0476,-0.0485,-0.0486,-0.0489,-0.0489,-0.0486,-0.0493,-0.0493,-0.0449,-0.0448,-0.0412,-0.0445,0,0,0,-0.0467,-0.0469,-0.047,-0.0474,-0.048,-0.0486,-0.0487,-0.0489,-0.0491,-0.0493,-0.0493,-0.0449,-0.0448,-0.0414,-0.0447,-0.0444,0,0,0,-0.0465,-0.0454,-0.047,-0.0456,-0.048,-0.0464,-0.0487,-0.0481,-0.0481,-0.0493,-0.0449,-0.0448,-0.0414,-0.0448,-0.0444,-0.0336,0,0,0,-0.0446,-0.0452,-0.0441,-0.0456,-0.0433,-0.0462,-0.0433,-0.0447,-0.0461,-0.0448,-0.0447,-0.0411,-0.0447,-0.0444,-0.0275,0,0,0,0,-0.0431,-0.0424,-0.042,-0.0413,-0.0411,-0.0418,-0.042,-0.0419,-0.0411,-0.0456,-0.04,-0.0425,-0.0424,-0.0361,-0.0442,-0.0443,-0.0443,-0.0443,-0.0443,-0.0402,-0.0398,-0.0384,-0.038,-0.0375,-0.0377,-0.0383,-0.0383,-0.0374,-0.036,-0.0383,-0.0349,-0.0277,-0.0346,-0.0345,-0.0345,-0.0345,-0.0345,-0.0345,-0.0378,-0.0368,-0.0373,-0.0358,-0.0361,-0.0343,-0.0346,-0.0344,-0.034,-0.0337,-0.0336,-0.0312,-0.0341,-0.0342,-0.0342,-0.0343,-0.0343,-0.0343,-0.0343,-0.0369,-0.0361,-0.036,-0.0337,-0.0335,-0.033,-0.0319,-0.033,-0.034,-0.0343,-0.0272,-0.0343,-0.036,-0.0322,-0.0322,-0.0322,-0.0322,-0.0322,-0.0322,-0.0351,-0.035,-0.0317,-0.0309,-0.0295,-0.0287,-0.03,-0.029,-0.0307,-0.0257,-0.0338,-0.0343,-0.0343,-0.036,-0.0324,-0.0324,-0.0324,-0.0323,-0.0323,-0.0299,-0.0293,-0.0255,-0.0233,-0.0202,-0.0201,-0.0232,-0.0196,-0.0187,-0.0168,-0.0205,-0.021,-0.0229,-0.0234,-0.0247,-0.0177,-0.0175,-0.0174,0,-0.0247,-0.0246,-0.018,-0.0141,-0.0103,-0.0141,-0.0081,-0.0085,-0.0118,-0.011,-0.021,-0.0255,-0.0257,-0.0282,-0.0283,-0.0299,0,0,0,-0.0179,-0.0184,-0.0121,-0.0097,-0.0055,-0.004,-0.0062,-0.0031,-0.0125,-0.0056,-0.0137,-0.0146,-0.022,-0.0329,-0.0373,-0.0374,-0.0403,0,0]},{"header":{"parameterUnit":"m.s-1","parameterCategory":2,"la1":30.2992,"la2":30.254,"lo1":-89.0895,"lo2":-89.0443,"dy":0.0025,"dx":0.0025,"nx":19,"ny":19,"refTime":"2026-05-06T03:00:00:Z","depth":"4","parameterNumber":3,"parameterNumberName":"V-component_of_CURRENTS"},"data":[0,0,0,0.0028,0.0029,0.0047,0.0047,0.0083,0.0083,0,0,0,0,0,0,0,0,0,0,0,0.0024,0.0025,0.0028,0.0029,0.0047,0.0047,0.0083,0.0083,0,0,0,0,0,0,0,0,0,0,0,0.0024,0.0024,0.0025,0.0029,0.0047,0.0047,0.0083,0.0067,0,0,0,0,0,0,0,0,0,0,0.0048,0.0042,0.0024,0.0025,0.0029,0.0047,0.0047,0.0066,0.0068,0.0077,0,0.008,0,0.0081,0.0086,0.0086,0,0,0,0.0032,0.004,0.0044,0.0025,0.0029,0.0047,0.004,0.0067,0.0069,0.008,0.0081,0.0082,0.0081,0.0086,0.0086,0.0199,0.02,0,0,0.0031,0.003,0.0042,0.0045,0.0034,0.0039,0.004,0.0068,0.0072,0.0081,0.0083,0.0082,0.0086,0.0086,0.0198,0.0199,0,0,0,0.0026,0.0029,0.0032,0.0044,0.0045,0.0039,0.0041,0.007,0.0071,0.0083,0.0082,0.0086,0.0087,0.0197,0.0199,0.0158,0,0,0,0.0025,0.0026,0.0031,0.0031,0.0044,0.0056,0.0042,0.0069,0.0072,0.0082,0.0086,0.0087,0.0196,0.0198,0.0157,0.0064,0,0,0,0.0023,0.0026,0.0028,0.0031,0.0037,0.0056,0.0058,0.007,0.0072,0.0086,0.0087,0.0195,0.0198,0.0156,0.0066,0.0,0,0,0,0.0022,0.0071,0.0028,0.0085,0.0037,0.0105,0.0058,0.0094,0.0113,0.0087,0.0196,0.0199,0.0155,0.0067,0.0002,0.0005,0,0,0,0.0095,0.0079,0.0117,0.008,0.0126,0.0103,0.0155,0.0141,0.0152,0.0186,0.0188,0.0157,0.0066,0.0001,0.0145,0,0,0,0,0.0148,0.0143,0.0166,0.0165,0.0205,0.0156,0.0184,0.0196,0.0204,0.0172,0.0216,0.0159,0.0118,0.0132,0.021,0.021,0.0209,0.0209,0.0209,0.0188,0.019,0.0192,0.0177,0.0207,0.0211,0.0188,0.0198,0.0259,0.0268,0.0173,0.0151,0.0175,0.0268,0.0268,0.0268,0.0268,0.0268,0.0268,0.0164,0.0112,0.0107,0.0101,0.0082,0.011,0.0137,0.0156,0.0146,0.0215,0.0179,0.015,0.0265,0.0266,0.0266,0.0266,0.0266,0.0267,0.0267,0.0076,0.0042,0.0036,-0.0021,-0.0055,-0.0016,-0.0062,-0.0017,0.0046,0.0009,0.0026,0.0093,0.0037,0.0014,0.0014,0.0013,0.0013,0.0012,0.0012,-0.0043,-0.0054,-0.0104,-0.0155,-0.0171,-0.0196,-0.0182,-0.0179,-0.0126,-0.0071,-0.0017,0.0063,0.0071,0.0023,0.0002,0.0004,0.0005,0.0006,0.0006,-0.0189,-0.0163,-0.0231,-0.0255,-0.0298,-0.0307,-0.03,-0.0271,-0.029,-0.0274,-0.011,-0.0101,-0.0116,-0.0105,-0.016,-0.0237,-0.0237,-0.0238,0,-0.0276,-0.0277,-0.0322,-0.0344,-0.0376,-0.0358,-0.0349,-0.0337,-0.0292,-0.0268,-0.0296,-0.0111,-0.0103,-0.0117,-0.0107,-0.017,0,0,0,-0.0378,-0.0354,-0.0391,-0.0376,-0.0387,-0.0353,-0.0339,-0.0324,-0.0284,-0.03,-0.0242,-0.0241,-0.011,-0.0028,-0.0032,-0.0022,-0.0102,0,0]}]]